Weather in Chyrgaky

Russia / Tyva Republic     51°03′53″N   91°00′22″E
temp.,
°C
wind,
m/s
gust,
m/s
humid.,
%
clouds,
%
prec.,
mm/h
press.,
hPa
HPBL,
m
5 march, fri
fri501:00−16sse22680 0.0 103021
04:00−18sse22710 0.0 102920
07:00−19sse23728 0.0 103022
10:00−14n1172100 0.0 1028125
13:00−13n228987 0.0 1024198
16:00−10nne1179100 0.0 1022206
19:00−13s228896 0.1 102728
22:00−13ssw117828 0.0 103122
6 march, sat
sat601:00−13s236514 0.0 103424
04:00−15s226289 0.0 103423
07:00−16s116186 0.0 103520
10:00−12n117389 0.0 103361
13:00−9n328385 0.0 1028157
16:00−8n229185 0.0 1025130
19:00−14e119384 0.0 102621
22:00−14s117078 0.0 102721
7 march, sun
sun701:00−15s116039 0.0 102721
04:00−16ssw11600 0.0 102620
07:00−16s11570 0.0 102720
10:00−11n116539 0.0 102647
13:00−8n228124 0.0 1024148
16:00−8nne118428 0.0 1023118
19:00−12sse118827 0.0 102621
22:00−13ssw017812 0.0 102821
8 march, mon
mon801:00−14ssw017253 0.0 102921
04:00−15s1167100 0.0 102921
07:00−16sse116474 0.0 103020
10:00−10n11720 0.0 102774
13:00−9n22884 0.0 1024173
16:00−8n229158 0.0 1022142
19:00−13se119463 0.0 102321
22:00−13se018211 0.0 102321
9 march, tue
tue901:00−12sse117238 0.0 102421
04:00−11sw1166100 0.0 102521
07:00−11sse116384 0.0 102721
10:00−7nw117253 0.0 102748
13:00−5n228534 0.0 1026188
16:00−4nne218518 0.0 1025136
19:00−10ese11909 0.0 102721
22:00−11se01840 0.0 102821